This is the latest recevied weather packets stored in our database for station/object KN6ZYR. If no packets are shown the sender has not sent any weather packets the latest 10 day(s).
| Time | Temp. | Humidity | Pressure | Rain* | Wind** | Luminosity | Snow |
|---|---|---|---|---|---|---|---|
| 1777140490 | 18.33° C | 27% | 1011.8 hPa | 0 mm | - | 274 W/m² | - |
| 1777140188 | 17.78° C | 27% | 1011.8 hPa | 0 mm | - | 272 W/m² | - |
| 1777139885 | 17.22° C | 28% | 1011.8 hPa | 0 mm | - | 273 W/m² | - |
| 1777139582 | 17.78° C | 28% | 1012 hPa | 0 mm | - | 283 W/m² | - |
| 1777139281 | 17.78° C | 27% | 1011.8 hPa | 0 mm | - | 326 W/m² | - |
| 1777138979 | 17.78° C | 29% | 1012 hPa | 0 mm | - | 313 W/m² | - |
| 1777138675 | 17.78° C | 27% | 1012 hPa | 0 mm | - | 296 W/m² | - |
| 1777138370 | 17.22° C | 28% | 1011.6 hPa | 0 mm | - | 294 W/m² | - |
| 1777138067 | 17.22° C | 28% | 1011.8 hPa | 0 mm | - | 342 W/m² | - |
| 1777137763 | 17.22° C | 30% | 1011.8 hPa | 0 mm | - | 321 W/m² | - |
| 1777137459 | 17.22° C | 29% | 1011.7 hPa | 0 mm | - | 325 W/m² | - |
| 1777137157 | 17.22° C | 29% | 1011.7 hPa | 0 mm | - | 329 W/m² | - |
| 1777136853 | 17.22° C | 30% | 1011.7 hPa | 0 mm | - | 370 W/m² | - |
| 1777136550 | 17.22° C | 31% | 1011.8 hPa | 0 mm | - | 295 W/m² | - |
| 1777136248 | 16.67° C | 31% | 1012.2 hPa | 0 mm | - | 268 W/m² | - |
| 1777135945 | 17.22° C | 31% | 1012 hPa | 0 mm | - | 230 W/m² | - |
| 1777135634 | 16.67° C | 31% | 1012.1 hPa | 0 mm | - | 250 W/m² | - |
| 1777135331 | 16.67° C | 31% | 1012 hPa | 0 mm | - | 267 W/m² | - |
| 1777134725 | 16.11° C | 32% | 1012.1 hPa | 0 mm | - | 361 W/m² | - |
| 1777134421 | 15.56° C | 32% | 1012.1 hPa | 0 mm | - | 314 W/m² | - |
| 1777134117 | 16.11° C | 31% | 1012 hPa | 0 mm | - | 226 W/m² | - |
| 1777133809 | 16.11° C | 32% | 1011.8 hPa | 0 mm | - | 242 W/m² | - |
| 1777133503 | 15.56° C | 33% | 1011.8 hPa | 0 mm | - | 323 W/m² | - |
| 1777133199 | 15.56° C | 33% | 1012.2 hPa | 0 mm | - | 350 W/m² | - |
| 1777132898 | 15° C | 35% | 1012.4 hPa | 0 mm | - | 250 W/m² | - |
* Rain latest hour (hover to see other rain measurements)
** Current wind speed in m/s (hover to see current wind gust speed)